FW1757 Weather Reports


time (UTC)temp
C
wind
direction
speed
KPH
gust
KPH
rain 1hr
cm
rain 24hr
cm
rain mn
cm
humidity
%
barometer
mb
20260831170051 16 51 0.0 0.0 0.00 0.00 0.00 66 1012.5
20260831165549 16 49 0.0 0.0 0.00 0.00 0.00 67 1012.4
20260831165047 16 51 0.0 0.0 0.00 0.00 0.00 67 1012.6
20260831164549 15 51 0.0 0.0 0.00 0.00 0.00 68 1012.7
20260831164045 15 46 0.0 0.0 0.00 0.00 0.00 69 1012.7
20260831163544 15 28 0.0 0.0 0.00 0.00 0.00 69 1012.7
20260831163045 15 40 0.0 0.0 0.00 0.00 0.00 71 1012.8
20260831162544 14 39 0.0 0.0 0.00 0.00 0.00 71 1012.8
20260831162045 14 23 0.0 0.0 0.00 0.00 0.00 71 1012.8
20260831161550 13 38 0.0 0.0 0.00 0.00 0.00 71 1013.0
20260831161043 13 22 0.0 0.0 0.00 0.00 0.00 72 1013.0
20260831160542 13 26 0.0 0.0 0.00 0.00 0.00 72 1013.0
20260831160042 13 306 0.0 0.0 0.00 0.00 0.00 72 1013.0
20260831155542 13 306 0.0 0.0 0.00 0.00 0.00 72 1013.0
20260831155042 12 306 0.0 0.0 0.00 0.00 0.00 72 1013.1
20260831154542 12 306 0.0 0.0 0.00 0.00 0.00 68 1013.1
20260831154043 12 306 0.0 0.0 0.00 0.00 0.00 67 1013.1
20260831153544 12 248 0.0 0.0 0.00 0.00 0.00 61 1013.1
20260831153041 12 248 0.0 0.0 0.00 0.00 0.00 53 1013.1
20260831152541 11 248 0.0 0.0 0.00 0.00 0.00 43 1013.1
20260831152041 11 248 0.0 0.0 0.00 0.00 0.00 40 1013.2
20260831151540 11 248 0.0 0.0 0.00 0.00 0.00 39 1013.2
20260831151040 11 248 0.0 0.0 0.00 0.00 0.00 38 1013.0
20260831150542 11 248 0.0 0.0 0.00 0.00 0.00 39 1013.1
20260831150040 11 248 0.0 0.0 0.00 0.00 0.00 39 1013.0
20260831145539 10 248 0.0 0.0 0.00 0.00 0.00 36 1012.9
20260831145038 10 248 0.0 0.0 0.00 0.00 0.00 38 1013.0
20260831144537 10 248 0.0 0.0 0.00 0.00 0.00 42 1012.9
20260831144036 10 248 0.0 0.0 0.00 0.00 0.00 49 1012.8
20260831143536 10 248 0.0 0.0 0.00 0.00 0.00 53 1012.8
20260831143035 10 248 0.0 0.0 0.00 0.00 0.00 56 1012.8
20260831142535 10 248 0.0 0.0 0.00 0.00 0.00 56 1012.8
20260831142034 10 248 0.0 0.0 0.00 0.00 0.00 56 1012.8
20260831141536 10 248 0.0 0.0 0.00 0.00 0.00 57 1012.8
20260831141038 10 248 0.0 0.0 0.00 0.00 0.00 57 1012.7
20260831140535 10 248 0.0 0.0 0.00 0.00 0.00 58 1012.7
20260831140044 10 248 0.0 0.0 0.00 0.00 0.00 58 1012.8
20260831135534 10 248 0.0 0.0 0.00 0.00 0.00 58 1012.8
20260831135032 10 248 0.0 0.0 0.00 0.00 0.00 58 1012.8
20260831134538 10 248 0.0 0.0 0.00 0.00 0.00 58 1012.8
20260831134032 10 248 0.0 0.0 0.00 0.00 0.00 59 1012.8
20260831133531 10 248 0.0 0.0 0.00 0.00 0.00 60 1012.7
20260831133033 10 248 0.0 0.0 0.00 0.00 0.00 60 1012.8
20260831132531 10 248 0.0 0.0 0.00 0.00 0.00 60 1012.7
20260831132032 10 248 0.0 0.0 0.00 0.00 0.00 61 1012.7
20260831131530 10 248 0.0 0.0 0.00 0.00 0.00 63 1012.7
20260831131032 10 248 0.0 0.0 0.00 0.00 0.00 63 1012.6
20260831130529 10 248 0.0 0.0 0.00 0.00 0.00 62 1012.6
20260831130028 10 248 0.0 0.0 0.00 0.00 0.00 60 1012.7
20260831125533 10 248 0.0 0.0 0.00 0.00 0.00 63 1012.7
20260831125028 10 248 0.0 0.0 0.00 0.00 0.00 63 1012.6
20260831124527 10 248 0.0 0.0 0.00 0.00 0.00 63 1012.6
20260831124027 10 248 0.0 0.0 0.00 0.00 0.00 66 1012.7
20260831123529 10 248 0.0 0.0 0.00 0.00 0.00 66 1012.7
20260831123030 10 248 0.0 0.0 0.00 0.00 0.00 67 1012.6
20260831122525 10 248 0.0 0.0 0.00 0.00 0.00 68 1012.6
20260831122024 10 248 0.0 0.0 0.00 0.00 0.00 67 1012.7
20260831121532 10 248 0.0 0.0 0.00 0.00 0.00 68 1012.6
20260831121024 11 248 0.0 0.0 0.00 0.00 0.00 68 1012.5
20260831120524 11 248 0.0 0.0 0.00 0.00 0.00 68 1012.6
20260831120023 11 248 0.0 0.0 0.00 0.00 0.00 69 1012.6
20260831115522 11 248 0.0 0.0 0.00 0.00 0.00 69 1012.6
20260831115022 11 248 0.0 0.0 0.00 0.00 0.00 70 1012.7
20260831114521 11 248 0.0 0.0 0.00 0.00 0.00 70 1012.7
20260831114021 11 248 0.0 0.0 0.00 0.00 0.00 70 1012.6
20260831113525 11 248 0.0 0.0 0.00 0.00 0.00 70 1012.6
20260831113020 11 248 0.0 0.0 0.00 0.00 0.00 70 1012.7
20260831112523 11 248 0.0 0.0 0.00 0.00 0.00 70 1012.6
20260831112020 11 248 0.0 0.0 0.00 0.00 0.00 70 1012.6
20260831111518 11 248 0.0 0.0 0.00 0.00 0.00 70 1012.6
20260831111018 11 248 0.0 0.0 0.00 0.00 0.00 70 1012.6
20260831110517 11 248 0.0 0.0 0.00 0.00 0.00 70 1012.7
20260831110017 11 248 0.0 0.0 0.00 0.00 0.00 70 1012.6
20260831105518 11 248 0.0 0.0 0.00 0.00 0.00 70 1012.7
20260831105015 11 248 0.0 0.0 0.00 0.00 0.00 70 1012.7
20260831104522 11 248 0.0 0.0 0.00 0.00 0.00 70 1012.7
20260831104014 12 248 0.0 0.0 0.00 0.00 0.00 71 1012.7
20260831103513 12 248 0.0 0.0 0.00 0.00 0.00 71 1012.6
20260831103013 12 248 0.0 0.0 0.00 0.00 0.00 71 1012.6
20260831102516 12 248 0.0 0.0 0.00 0.00 0.00 71 1012.7
20260831102014 12 248 0.0 0.0 0.00 0.00 0.00 71 1012.7
20260831101512 12 248 0.0 0.0 0.00 0.00 0.00 71 1012.8
20260831101011 12 248 0.0 0.0 0.00 0.00 0.00 72 1012.8
20260831100510 12 248 0.0 0.0 0.00 0.00 0.00 72 1012.8
20260831100012 12 248 0.0 0.0 0.00 0.00 0.00 72 1012.7
20260831095509 12 248 0.0 0.0 0.00 0.00 0.00 72 1012.9
20260831095008 12 248 0.0 0.0 0.00 0.00 0.00 72 1013.0
20260831094511 12 248 0.0 0.0 0.00 0.00 0.00 72 1013.0
20260831094010 12 248 0.0 0.0 0.00 0.00 0.00 72 1013.1
20260831093506 12 248 0.0 0.0 0.00 0.00 0.00 72 1013.1
20260831093004 12 248 0.0 0.0 0.00 0.00 0.00 72 1013.1
20260831092506 13 248 0.0 0.0 0.00 0.00 0.00 72 1013.1
20260831092004 13 248 0.0 0.0 0.00 0.00 0.00 71 1013.1
20260831091505 13 248 0.0 0.0 0.00 0.00 0.00 71 1013.2
20260831091003 13 248 0.0 0.0 0.00 0.00 0.00 71 1013.2
20260831090502 13 248 0.0 0.0 0.00 0.00 0.00 71 1013.2
20260831090001 13 248 0.0 0.0 0.00 0.00 0.00 71 1013.3
20260831085601 13 248 0.0 0.0 0.00 0.00 0.00 71 1013.2
20260831085100 13 248 0.0 0.0 0.00 0.00 0.00 71 1013.1
20260831084609 13 248 0.0 0.0 0.00 0.00 0.00 71 1013.3
20260831084058 13 248 0.0 0.0 0.00 0.00 0.00 70 1013.3
20260831083557 13 248 0.0 0.0 0.00 0.00 0.00 70 1013.3
20260831083057 14 248 0.0 0.0 0.00 0.00 0.00 70 1013.2
20260831082556 14 248 0.0 0.0 0.00 0.00 0.00 70 1013.2
20260831082056 14 248 0.0 0.0 0.00 0.00 0.00 70 1013.3
20260831081555 14 248 0.0 0.0 0.00 0.00 0.00 70 1013.3
20260831081055 14 248 0.0 0.0 0.00 0.00 0.00 70 1013.3
20260831080555 15 248 0.0 0.0 0.00 0.00 0.00 70 1013.5
20260831080104 15 248 0.0 0.0 0.00 0.00 0.00 70 1013.3
20260831075553 15 248 0.0 0.0 0.00 0.00 0.00 69 1013.4
20260831075052 15 248 0.0 0.0 0.00 0.00 0.00 70 1013.4
20260831074551 15 248 0.0 0.0 0.00 0.00 0.00 69 1013.3
20260831074051 15 248 0.0 0.0 0.00 0.00 0.00 69 1013.3
20260831073551 15 254 0.0 0.0 0.00 0.00 0.00 69 1013.4
20260831073053 15 254 0.0 0.0 0.00 0.00 0.00 68 1013.4
20260831072549 15 254 0.0 0.0 0.00 0.00 0.00 69 1013.4
20260831072049 15 254 0.0 0.0 0.00 0.00 0.00 68 1013.4
20260831071549 15 254 0.0 0.0 0.00 0.00 0.00 68 1013.5
20260831071048 15 254 0.0 0.0 0.00 0.00 0.00 68 1013.4
20260831070547 15 254 0.0 0.0 0.00 0.00 0.00 68 1013.3
20260831070048 15 254 0.0 0.0 0.00 0.00 0.00 68 1013.4
20260831065548 15 254 0.0 0.0 0.00 0.00 0.00 68 1013.4
20260831065146 15 254 0.0 0.0 0.00 0.00 0.00 67 1013.4
20260831064544 15 254 0.0 0.0 0.00 0.00 0.00 67 1013.5
20260831064044 15 254 0.0 0.0 0.00 0.00 0.00 67 1013.6
20260831063544 16 254 0.0 0.0 0.00 0.00 0.00 67 1013.3
20260831063043 16 254 0.0 0.0 0.00 0.00 0.00 66 1013.4
20260831062543 16 254 0.0 0.0 0.00 0.00 0.00 66 1013.6
20260831062043 16 254 0.0 0.0 0.00 0.00 0.00 65 1013.5
20260831061543 16 255 0.0 0.0 0.00 0.00 0.00 66 1013.6
20260831061043 16 255 0.0 0.0 0.00 0.00 0.00 66 1013.6
20260831060542 16 255 0.0 0.0 0.00 0.00 0.00 65 1013.7
20260831060042 16 255 0.0 0.0 0.00 0.00 0.00 65 1013.6
20260831055544 16 252 0.0 0.0 0.00 0.00 0.00 64 1013.7
20260831055041 16 252 0.0 0.0 0.00 0.00 0.00 63 1013.7
20260831054541 17 252 0.0 0.0 0.00 0.00 0.00 63 1013.6
20260831054041 17 252 0.0 0.0 0.00 0.00 0.00 62 1013.6
20260831053541 17 252 0.0 0.0 0.00 0.00 0.00 62 1013.7
20260831053042 17 252 0.0 0.0 0.00 0.00 0.00 61 1013.7
20260831052543 17 252 0.0 0.0 0.00 0.00 0.00 61 1013.8
20260831052040 17 252 0.0 0.0 0.00 0.00 0.00 61 1013.9
20260831051544 18 252 0.0 0.0 0.00 0.00 0.00 60 1013.8
20260831051040 18 252 0.0 0.0 0.00 0.00 0.00 60 1013.8
20260831050541 18 252 0.0 0.0 0.00 0.00 0.00 59 1013.8
20260831050041 18 252 0.0 0.0 0.00 0.00 0.00 59 1013.8
20260831045541 18 252 0.0 0.0 0.00 0.00 0.00 59 1013.8
20260831045040 18 266 0.0 0.0 0.00 0.00 0.00 58 1013.9
20260831044550 18 266 0.0 0.0 0.00 0.00 0.00 58 1014.0
20260831044039 18 268 0.0 0.0 0.00 0.00 0.00 58 1013.9
20260831043541 19 281 0.0 0.0 0.00 0.00 0.00 58 1013.7
20260831043039 19 295 0.0 0.0 0.00 0.00 0.00 57 1013.8
20260831042542 19 269 0.0 0.0 0.00 0.00 0.00 56 1014.0
20260831042039 19 269 0.0 0.0 0.00 0.00 0.00 55 1013.9
20260831041548 19 268 0.0 0.0 0.00 0.00 0.00 54 1013.9
20260831041043 19 267 0.0 0.0 0.00 0.00 0.00 54 1013.9
20260831040539 19 266 0.0 0.0 0.00 0.00 0.00 53 1013.8
20260831040039 20 238 0.0 0.0 0.00 0.00 0.00 53 1013.9
20260831035541 20 220 0.0 0.0 0.00 0.00 0.00 52 1013.9
20260831035037 20 194 0.0 0.0 0.00 0.00 0.00 52 1013.9
20260831034537 20 248 0.0 0.0 0.00 0.00 0.00 51 1013.8
20260831034037 20 209 0.0 0.0 0.00 0.00 0.00 51 1013.8
20260831033537 20 243 0.0 0.0 0.00 0.00 0.00 51 1013.8
20260831033037 20 243 0.0 0.0 0.00 0.00 0.00 50 1013.6
20260831032537 20 243 0.0 0.0 0.00 0.00 0.00 50 1013.6
20260831032036 20 243 0.0 0.0 0.00 0.00 0.00 49 1013.5
20260831031538 21 242 0.0 0.0 0.00 0.00 0.00 49 1013.6
20260831031036 21 242 0.0 0.0 0.00 0.00 0.00 49 1013.5
20260831030539 21 239 0.0 0.0 0.00 0.00 0.00 48 1013.5
20260831030037 21 255 0.0 0.0 0.00 0.00 0.00 48 1013.6
20260831025536 21 243 0.0 0.0 0.00 0.00 0.00 47 1013.5
20260831025036 21 283 0.0 0.0 0.00 0.00 0.00 47 1013.4
20260831024539 21 284 0.0 0.0 0.00 0.00 0.00 46 1013.5
20260831024035 22 275 0.0 0.0 0.00 0.00 0.00 45 1013.5
20260831023535 22 267 0.0 0.0 0.00 0.00 0.00 45 1013.5
20260831023035 22 259 0.0 0.0 0.00 0.00 0.00 44 1013.5
20260831022534 22 234 0.0 0.0 0.00 0.00 0.00 43 1013.5
20260831022034 22 248 0.0 0.0 0.00 0.00 0.00 43 1013.4
20260831021538 22 244 0.0 0.0 0.00 0.00 0.00 42 1013.6
20260831021036 23 275 0.0 0.0 0.00 0.00 0.00 42 1013.5
20260831020534 23 274 0.0 0.0 0.00 0.00 0.00 41 1013.6
20260831020034 23 244 0.0 0.0 0.00 0.00 0.00 40 1013.6
20260831015533 23 225 0.0 0.0 0.00 0.00 0.00 40 1013.4
20260831015034 23 284 0.0 0.0 0.00 0.00 0.00 40 1013.6
20260831014542 24 259 0.0 0.0 0.00 0.00 0.00 39 1013.6
20260831014033 24 294 0.0 0.0 0.00 0.00 0.00 39 1013.5
20260831013532 24 209 0.0 0.0 0.00 0.00 0.00 39 1013.6
20260831013036 24 215 0.0 0.0 0.00 0.00 0.00 39 1013.6
20260831012532 24 259 0.0 0.0 0.00 0.00 0.00 39 1013.6
20260831012032 24 271 0.0 0.0 0.00 0.00 0.00 38 1013.6
20260831011535 24 284 0.0 0.0 0.00 0.00 0.00 38 1013.5
20260831011031 24 258 0.0 0.0 0.00 0.00 0.00 37 1013.6
20260831010531 25 241 0.0 0.0 0.00 0.00 0.00 38 1013.7
20260831010031 25 259 0.0 0.0 0.00 0.00 0.00 37 1013.7
20260831005530 25 253 0.0 0.0 0.00 0.00 0.00 37 1013.7
20260831005033 25 254 0.0 0.0 0.00 0.00 0.00 37 1013.7
20260831004530 25 238 0.0 0.0 0.00 0.00 0.00 37 1013.8
20260831004033 25 192 0.0 0.0 0.00 0.00 0.00 37 1013.7
20260831003530 25 304 0.0 0.0 0.00 0.00 0.00 37 1013.7
20260831003030 25 311 0.0 0.0 0.00 0.00 0.00 37 1013.8
20260831002533 25 271 0.0 0.0 0.00 0.00 0.00 37 1013.8
20260831002028 25 279 0.0 0.0 0.00 0.00 0.00 38 1013.6
20260831001527 25 286 0.0 0.0 0.00 0.00 0.00 37 1013.7
20260831001030 25 245 0.0 0.0 0.00 0.00 0.00 37 1013.8
20260831000527 24 300 0.0 0.0 0.00 0.00 0.00 38 1013.7
20260831000038 24 289 0.0 0.0 0.00 0.00 0.00 38 1013.8
20260830235527 24 272 0.0 0.0 0.00 0.00 0.00 38 1013.7
20260830235028 24 311 0.0 0.0 0.00 0.00 0.00 38 1013.9
20260830234525 24 295 0.0 0.0 0.00 0.00 0.00 38 1014.0
20260830234025 24 259 0.0 0.0 0.00 0.00 0.00 37 1014.0
20260830233530 25 302 0.0 0.0 0.00 0.00 0.00 36 1014.1
20260830233034 25 281 0.0 0.0 0.00 0.00 0.00 36 1014.1
20260830232524 25 256 0.0 0.0 0.00 0.00 0.00 36 1014.3
20260830232025 25 301 0.0 0.0 0.00 0.00 0.00 35 1014.3
20260830231530 25 302 0.0 0.0 0.00 0.00 0.00 33 1014.4
20260830231022 25 269 0.0 0.0 0.00 0.00 0.00 34 1014.3
20260830230522 24 237 0.0 0.0 0.00 0.00 0.00 34 1014.4
20260830230022 25 299 0.0 0.0 0.00 0.00 0.00 33 1014.4
20260830225521 25 321 0.0 0.0 0.00 0.00 0.00 33 1014.6
20260830225020 25 280 0.0 0.0 0.00 0.00 0.00 34 1014.7
20260830224519 25 277 0.0 0.0 0.00 0.00 0.00 35 1014.8
20260830224020 25 275 0.0 0.0 0.00 0.00 0.00 35 1014.8
20260830223519 25 311 0.0 0.0 0.00 0.00 0.00 35 1014.9
20260830223017 25 294 0.0 0.0 0.00 0.00 0.00 34 1015.0
20260830222515 25 307 0.0 0.0 0.00 0.00 0.00 34 1015.1
20260830222019 25 255 0.0 0.0 0.00 0.00 0.00 35 1015.1
20260830221514 24 284 0.0 0.0 0.00 0.00 0.00 36 1015.2
20260830221013 24 269 0.0 0.0 0.00 0.00 0.00 36 1015.3
20260830220512 24 296 0.0 0.0 0.00 0.00 0.00 37 1015.5
20260830220013 23 271 0.0 0.0 0.00 0.00 0.00 37 1015.5
20260830215509 23 294 0.0 0.0 0.00 0.00 0.00 38 1015.5
20260830215013 23 227 0.0 0.0 0.00 0.00 0.00 36 1015.6
20260830214509 23 12 0.0 0.0 0.00 0.00 0.00 37 1015.6
20260830214007 23 350 0.0 0.0 0.00 0.00 0.00 37 1015.7
20260830213506 23 266 0.0 0.0 0.00 0.00 0.00 38 1015.7
20260830213005 23 292 0.0 0.0 0.00 0.00 0.00 39 1015.7
20260830212505 23 263 0.0 0.0 0.00 0.00 0.00 38 1015.8
20260830212005 23 344 0.0 0.0 0.00 0.00 0.00 38 1015.8
20260830211510 23 296 0.0 0.0 0.00 0.00 0.00 38 1015.9
20260830211003 22 301 0.0 0.0 0.00 0.00 0.00 39 1016.0
20260830210502 22 279 0.0 0.0 0.00 0.00 0.00 40 1015.9
20260830210001 22 287 0.0 0.0 0.00 0.00 0.00 40 1015.9
20260830205600 22 267 0.0 0.0 0.00 0.00 0.00 41 1015.9
20260830205101 22 281 0.0 0.0 0.00 0.00 0.00 41 1015.9
20260830204558 22 299 0.0 0.0 0.00 0.00 0.00 41 1016.1
20260830204058 22 290 0.0 0.0 0.00 0.00 0.00 41 1016.1
20260830203556 21 347 0.0 0.0 0.00 0.00 0.00 42 1016.3
20260830203055 21 256 0.0 0.0 0.00 0.00 0.00 42 1016.2
20260830202554 21 306 0.0 0.0 0.00 0.00 0.00 42 1016.4
20260830202053 21 285 0.0 0.0 0.00 0.00 0.00 43 1016.3
20260830201553 21 295 0.0 0.0 0.00 0.00 0.00 43 1016.4
20260830201052 21 256 0.0 0.0 0.00 0.00 0.00 43 1016.6
20260830200554 21 288 0.0 0.0 0.00 0.00 0.00 44 1016.6
20260830200050 21 282 0.0 0.0 0.00 0.00 0.00 45 1016.6
20260830195552 21 290 0.0 0.0 0.00 0.00 0.00 45 1016.7
20260830195051 20 290 0.0 0.0 0.00 0.00 0.00 45 1016.7
20260830194547 20 279 0.0 0.0 0.00 0.00 0.00 45 1016.8
20260830194051 20 280 0.0 0.0 0.00 0.00 0.00 46 1016.8
20260830193543 20 314 0.0 0.0 0.00 0.00 0.00 46 1016.8
20260830193043 20 292 0.0 0.0 0.00 0.00 0.00 47 1016.8
20260830192541 20 296 0.0 0.0 0.00 0.00 0.00 49 1016.8
20260830192041 19 292 0.0 0.0 0.00 0.00 0.00 49 1016.9
20260830191540 19 271 0.0 0.0 0.00 0.00 0.00 48 1016.9
20260830191040 19 306 0.0 0.0 0.00 0.00 0.00 49 1016.9
20260830190539 19 282 0.0 0.0 0.00 0.00 0.00 49 1017.1
20260830190038 18 282 0.0 0.0 0.00 0.00 0.00 50 1017.1
20260830185537 18 304 0.0 0.0 0.00 0.00 0.00 51 1017.2
20260830185036 18 355 0.0 0.0 0.00 0.00 0.00 51 1017.2
20260830184535 18 302 0.0 0.0 0.00 0.00 0.00 52 1017.3
20260830184033 18 299 0.0 0.0 0.00 0.00 0.00 51 1017.3
20260830183534 18 300 0.0 0.0 0.00 0.00 0.00 54 1017.4
20260830183032 18 307 0.0 0.0 0.00 0.00 0.00 52 1017.4
20260830182534 18 313 0.0 0.0 0.00 0.00 0.00 54 1017.4
20260830182031 17 296 0.0 0.0 0.00 0.00 0.00 54 1017.6
20260830181530 17 290 0.0 0.0 0.00 0.00 0.00 54 1017.6
20260830181030 17 311 0.0 0.0 0.00 0.00 0.00 55 1017.6
20260830180532 17 298 0.0 0.0 0.00 0.00 0.00 55 1017.6
20260830180028 17 290 0.0 0.0 0.00 0.00 0.00 56 1017.6
20260830175528 17 310 0.0 0.0 0.00 0.00 0.00 56 1017.6
20260830175027 17 288 0.0 0.0 0.00 0.00 0.00 56 1017.6
20260830174525 17 263 0.0 0.0 0.00 0.00 0.00 57 1017.6
20260830174024 17 298 0.0 0.0 0.00 0.00 0.00 58 1017.6
20260830173525 16 250 0.0 0.0 0.00 0.00 0.00 58 1017.6
20260830173022 16 303 0.0 0.0 0.00 0.00 0.00 59 1017.6
20260830172522 16 290 0.0 0.0 0.00 0.00 0.00 60 1017.6
20260830172021 16 274 0.0 0.0 0.00 0.00 0.00 62 1017.7
20260830171519 16 287 0.0 0.0 0.00 0.00 0.00 63 1017.6
20260830171018 15 296 0.0 0.0 0.00 0.00 0.00 64 1017.7